www.pogodaiklimat.ru
ПОГОДА в Любляна аэропорту
Время
(UTC), дата
20 21.05
19 21.05
21 21.05
22 21.05
23 21.05
00 22.05
02 22.05
01 22.05
03 22.05
04 22.05
05 22.05
06 22.05
08 22.05
07 22.05
09 22.05
10 22.05
11 22.05
12 22.05
14 22.05
13 22.05
15 22.05
16 22.05
17 22.05
18 22.05
20 22.05
19 22.05
21 22.05
22 22.05
23 22.05
00 23.05
02 23.05
01 23.05
03 23.05
04 23.05
05 23.05
06 23.05
08 23.05
07 23.05
09 23.05
10 23.05
11 23.05
12 23.05
14 23.05
13 23.05
15 23.05
16 23.05
17 23.05
18 23.05
20 23.05
19 23.05
21 23.05
22 23.05
23 23.05
00 24.05
02 24.05
01 24.05
03 24.05
04 24.05
05 24.05
06 24.05
08 24.05
07 24.05
09 24.05
10 24.05
11 24.05
12 24.05
14 24.05
13 24.05
15 24.05
16 24.05
17 24.05
18 24.05
20 24.05
19 24.05
21 24.05
22 24.05
23 24.05
00 25.05
02 25.05
01 25.05
03 25.05
04 25.05
05 25.05
06 25.05
08 25.05
07 25.05
09 25.05
10 25.05
11 25.05
12 25.05
14 25.05
13 25.05
15 25.05
16 25.05
17 25.05
18 25.05
20 25.05
19 25.05
21 25.05
22 25.05
23 25.05
00 26.05
02 26.05
01 26.05
03 26.05
04 26.05
05 26.05
06 26.05
08 26.05
07 26.05
09 26.05
10 26.05
11 26.05
12 26.05
14 26.05
13 26.05
15 26.05
16 26.05
17 26.05
18 26.05
20 26.05
19 26.05
21 26.05
22 26.05
23 26.05
00 27.05
02 27.05
01 27.05
03 27.05
04 27.05
05 27.05
06 27.05
08 27.05
07 27.05
09 27.05
10 27.05
11 27.05
12 27.05
14 27.05
13 27.05
15 27.05
16 27.05
17 27.05
18 27.05
20 27.05
19 27.05
21 27.05
22 27.05
23 27.05
00 28.05
02 28.05
01 28.05
03 28.05
04 28.05
05 28.05
06 28.05
08 28.05
07 28.05
09 28.05
10 28.05
11 28.05
12 28.05
14 28.05
13 28.05
15 28.05
17 28.05
18 28.05
Ветер
(напр.,м/с)
Видим. Явления Облачность Т
(С)
Тd
(С)
f
(%)
Тe
(С)
Тes
(С)
Комфортность P
(гПа)
Po
(гПа)
Тmin
(С)
Tmax
(С)
R
(мм)
R24
(мм)
S
(см)
В 1
{3}
50 км 9/9 2000 м
[Sc Ac As Ci fib]
+15.6 +7.1 57 +16 +16 тепло 1021.7 976.8
ЮВ 3
{4}
50 км 9/1 2000 м
[Sc diur, vesp Ac As Ci fib]
+16.5 +7.4 55 +16 +16 тепло 1020.5 975.8
СВ 1
{1}
50 км 9/3 2000 м
[Sc Ac As]
+14.7 +9.1 69 +15 +15 по сезону 1022.5 977.4
СЗ 1
{2}
50 км 6/0
[Ac As]
+12.7 +9.5 81 +13 +13 по сезону 1023.2 977.8
штиль 0
{2}
50 км 8/3 2000 м
[Sc Ac As]
+11.0 +9.1 88 +10 +10 холодно 1023.9 978.2
штиль 0
{2}
30 км 1/0
[Ac trans]
+9.6 +8.0 90 +9 +9 по сезону 1024.2 978.2
З 2
{2}
40 км 8/0
[Ac trans Cs]
+7.9 +7.2 95 +6 +6 прохладно 1024.7 978.5
штиль 0
{1}
40 км 1/0
[Ac trans]
+8.5 +7.6 94 +8 +8 прохладно 1024.5 978.4
З 1
{3}
50 км 6/1 1500 м
[Cu Sc Ac trans Cs]
+7.2 +6.8 97 +6 +6 холодно 1025.2 978.8
штиль 0
{1}
50 км 1/1 1000 м
[Cu hum Ac trans Ci fib]
+6.8 +6.5 98 +6 +6 холодно 1025.4 978.9
СЗ 1
{1}
50 км 1/1 1500 м
[Cu hum Ac lent Ci fib]
+9.3 +8.1 92 +9 +10 прохладно 1025.2 979.2
В 1
{2}
50 км 1/1 1500 м
[Cu hum Ac trans Ci fib]
+12.5 +9.0 79 +13 +17 по сезону 1024.6 979.2 +6.2
ЮВ 2
{4}
50 км 4/1 1500 м
[Cu hum Ci sp]
+16.5 +6.6 52 +17 +26 тепло 1024.2 979.3
В 2
{3}
50 км 3/1 1500 м
[Cu hum Ac trans Ci sp]
+14.7 +8.0 64 +14 +20 по сезону 1024.5 979.3
В 2
{4}
50 км 8/1 1500 м
[Cu hum Cs]
+17.7 +9.3 58 +18 +29 по сезону 1023.9 979.2
В 2
{4}
50 км 9/1 1500 м
[Cu hum Cs]
+18.3 +7.4 49 +19 +32 опасность
простуды
1023.8 979.2
ЮВ 2
{4}
50 км 9/1 1500 м
[Cu hum Ac trans Cs]
+19.4 +8.7 50 +21 +30 комфорт 1023.5 979.1
В 3
{5}
50 км 6/1 1500 м
[Cu hum Ac trans Cs]
+20.1 +9.7 51 +22 +31 комфорт 1022.8 978.6
СВ 2
{4}
50 км 5/1 1500 м
[Cu hum Ac lent Ci sp]
+22.8 +11.5 49 +25 +33 комфорт 1021.3 977.5
В 1
{4}
50 км 4/1 1500 м
[Cu hum Ac trans Ci sp]
+21.5 +11.2 52 +23 +37 комфорт 1022.1 978.1
З 3
{7}
50 км 8/1 1500 м
[Cu hum Ac lent Ci sp]
+22.5 +10.3 46 +24 +28 комфорт 1021.1 977.3
ЮЗ 3
{6}
50 км 5/1 1500 м
[Cu hum Ac lent Ci sp]
+22.8 +10.9 47 +25 +27 комфорт 1020.8 977.1
ЮЗ 2
{6}
50 км 4/1 1500 м
[Cu hum Ac lent Ci sp]
+21.5 +11.8 54 +24 +25 комфорт 1020.9 977.0
ЮВ 2
{3}
50 км 5/1 2000 м
[Cu hum Ac lent Ci sp]
+19.4 +12.7 65 +21 +22 комфорт 1021.5 977.2 +23.3
штиль 0
{2}
50 км 1/0
[Ac lent Ci fib]
+15.1 +11.5 79 +15 +15 прохладно 1022.9 977.9
В 1
{2}
50 км 3/1 2000 м
[Cu hum Ac lent Ci fib]
+16.8 +11.7 72 +18 +18 по сезону 1022.3 977.6
ЮВ 1
{2}
50 км 1/0
[Ci fib]
+12.8 +11.0 89 +13 +13 по сезону 1023.5 978.1
ЮВ 1
{1}
50 км 6/0
[Ac trans Ci fib]
+12.1 +10.5 90 +12 +12 прохладно 1023.8 978.3
штиль 0
{1}
40 км 9/0
[Ac trans Ci fib]
+12.6 +11.0 90 +12 +12 прохладно 1023.8 978.4
штиль 0
{1}
40 км 9/0
[Ac trans Ci fib]
+12.7 +11.3 91 +12 +12 по сезону 1023.7 978.4
ЮВ 1
{2}
40 км 9/0
[Ac As Cs]
+12.8 +11.5 92 +13 +13 тепло 1023.7 978.4
ЮЗ 1
{1}
40 км 9/0
[Ac trans Ci fib]
+12.8 +11.4 91 +13 +13 тепло 1023.6 978.3
штиль 0
{1}
40 км 9/0
[Ac As Cs]
+12.4 +11.6 95 +12 +12 по сезону 1023.9 978.5
С 1
{1}
40 км 9/0
[Ac As Cs]
+12.7 +11.8 94 +13 +13 по сезону 1024.8 979.4
ЮВ 3
{3}
40 км в посл. час дождь 10/5 1300 м
[Sc Ac As Cs]
+13.9 +11.8 87 +13 +13 по сезону 1024.5 979.3
З 1
{5}
35 км {дождь} 10/4
[Sc Cs]
+14.7 +12.0 84 +15 +17 тепло 1024.7 979.6 +11.7 0.0 0.0
ЮЗ 1
{2}
50 км 9/1 2000 м
[Sc Ac As Cs]
+17.2 +11.7 70 +18 +25 тепло 1024.3 979.6
З 2
{3}
50 км 9/1 2000 м
[Sc Ac As Cs]
+15.8 +12.2 79 +16 +20 тепло 1024.5 979.5
СЗ 1
{2}
50 км 9/1 2000 м
[Sc Ac As Cs]
+19.0 +12.3 65 +21 +30 комфорт 1024.0 979.6
ЮВ 3
{4}
50 км 9/1 2000 м
[Sc Ac As Cs]
+19.6 +12.1 62 +21 +29 комфорт 1023.0 978.7
ЮВ 2
{3}
50 км 9/1 2000 м
[Sc Ac As Cs]
+20.6 +13.1 62 +24 +33 комфорт 1022.4 978.2
В 2
{4}
50 км 6/1 2000 м
[Cu hum Ac lent Ci sp]
+22.3 +12.8 55 +25 +36 комфорт 1021.4 977.5
СВ 2
{5}
35 км 6/3 1500 м
[Cu hum Ac lent Ci sp]
+22.9 +14.2 58 +26 +33 жарко 1019.5 975.8
СВ 2
{5}
40 км 8/1 2000 м
[Cu hum Ac lent Cs]
+23.0 +14.3 58 +27 +35 душно 1020.3 976.6
С 2
{3}
30 км 6/3 1500 м
[Sc diur, vesp Ac lent Ci sp]
+24.1 +13.6 52 +26 +31 жарко 1018.6 975.2
З 3
{6}
30 км 8/3 1300 м
[Cu Sc Ac As Ci sp]
+23.4 +12.7 51 +26 +28 жарко 1018.2 974.7
З 3
{6}
30 км 8/3 1200 м
[Cu Sc Ac As Ci sp]
+22.4 +13.2 56 +25 +26 комфорт 1018.2 974.5
З 2
{4}
30 км 9/3 1200 м
[Cu Sc Ac lent Ci sp]
+21.3 +12.4 57 +24 +24 комфорт 1018.4 974.5 +24.7
ЮЗ 2
{4}
30 км 9/6 1200 м
[Cu Sc Ac As]
+19.6 +11.6 60 +22 +22 комфорт 1019.3 975.2
З 3
{4}
30 км 9/4 1200 м
[Cu Sc Ac As Ci sp]
+19.7 +12.2 62 +21 +21 комфорт 1018.8 974.7
С 2
{4}
20 км слаб. ливневой дождь 9/6 1300 м
[Cu Sc Ac As]
+18.0 +12.9 72 +19 +19 тепло 1019.6 975.3
СЗ 4
{8}
12 км ливневой дождь 10/10 1300 м
[Cu Sc]
+14.9 +10.9 77 +14 +14 по сезону 1021.2 976.3
СЗ 5
{9}
12 км ливневой дождь 10/10 1300 м
[Cu Sc]
+13.4 +12.0 91 +11 +11 прохладно 1022.4 977.2
З 5
{7}
12 км ливневой дождь 10/10 1300 м
[Cu Sc]
+12.9 +11.6 92 +11 +11 по сезону 1022.5 977.2 6
ЮВ 1 20 км слаб. дождь 10/10 90 м
[Sc]
+12.0 +11.7 98 +12 +12 по сезону 1023.4 977.9
С 1 6000 м сильн. дождь 10/10 180 м
[Sc]
+12.2 +11.4 95 +12 +12 по сезону 1023.4 978.0
З 1
{2}
20 км в посл. час дождь {ливн. осадки} 9/4 60 м
[Cu Sc Ac As]
+11.9 +11.6 98 +12 +12 по сезону 1024.7 979.1
Ю 1
{4}
20 км 6/4 90 м
[Cu Sc Ac trans]
+11.7 +11.5 99 +11 +11 по сезону 1025.5 979.9
СЗ 1
{2}
20 км 8/4 90 м
[St Ac trans]
+12.1 +11.6 97 +12 +12 по сезону 1026.5 981.0
СЗ 1
{2}
30 км {дождь} 8/4 90 м
[Cu Sc Ac trans]
+13.8 +12.0 89 +14 +16 по сезону 1026.5 981.2 +10.9 16 15.5
С 2
{9}
30 км 8/4 400 м
[Cu Sc Ac trans]
+15.2 +8.9 66 +15 +19 тепло 1027.4 982.2
СЗ 2
{6}
30 км 8/4 300 м
[Cu Sc Ac trans]
+14.5 +8.2 66 +14 +17 по сезону 1027.3 982.0
З 1
{4}
30 км 8/1 900 м
[Cu hum Ac trans]
+16.6 +5.3 47 +18 +26 по сезону 1027.1 982.1
ЮВ 2
{5}
40 км 4/1 1000 м
[Cu hum Ac trans Ci fib]
+17.7 +7.2 50 +18 +31 опасность
простуды
1026.6 981.8
ЮВ 1
{4}
40 км 6/1 1000 м
[Cu hum Ac trans Ci fib]
+18.2 +6.4 46 +19 +33 опасность
простуды
1026.3 981.6
С 2
{5}
40 км 6/4 1200 м
[Cu hum Ac trans Ci fib]
+19.3 +5.0 39 +20 +29 по сезону 1025.9 981.3
С 3
{7}
50 км 4/3 1500 м
[Cu Sc Ac trans Ci sp]
+19.5 +2.0 31 +20 +26 по сезону 1025.5 980.9

{9}
40 км 8/4 1500 м
[Cu Sc Ac trans Ci sp]
+19.2 +3.0 34 1025.8 981.2
З 1
{4}
50 км 3/3 1500 м
[Cu hum Ci sp]
+20.5 +1.9 29 +22 +28 комфорт 1025.0 980.6
С 3
{5}
50 км 1/1 1500 м
[Cu hum Ci fib]
+19.8 +3.9 35 +21 +24 комфорт 1024.7 980.3
С 2
{5}
50 км 1/1 1500 м
[Cu hum]
+18.3 +1.8 33 +19 +20 прохладно 1025.1 980.4
СВ 1
{5}
50 км 3/1 2000 м
[Cu hum Ac trans Ci fib]
+16.5 +6.4 51 +17 +18 по сезону 1025.7 980.7 +20.9
ЮВ 1
{4}
40 км 1/0 2000 м
[Cu hum Ac trans Ci fib]
+11.8 +7.1 73 +12 +12 очень
холодно
1027.7 981.9
С 2
{4}
50 км 3/1 2000 м
[Cu hum Ac trans Ci fib]
+13.2 +6.1 62 +13 +13 очень
холодно
1026.9 981.3
З 1
{1}
40 км 1/0
[Ac trans Ci fib]
+9.9 +7.3 84 +9 +9 холодно 1028.4 982.4
С 1
{4}
40 км 1/0
[Ac trans Ci fib]
+8.4 +6.2 86 +8 +8 холодно 1028.8 982.5
штиль 0
{2}
30 км 5/0
[Ac trans]
+8.5 +7.0 90 +8 +8 очень
холодно
1029.1 982.7
СЗ 1
{1}
30 км 8/0
[Ac As]
+8.6 +6.9 89 +8 +8 прохладно 1029.1 982.7
СЗ 1
{2}
30 км 6/0
[Ac As]
+7.9 +6.5 91 +7 +7 прохладно 1028.8 982.4
ЮЗ 1
{2}
30 км 9/0
[Ac As]
+9.0 +6.8 86 +8 +8 прохладно 1028.8 982.6
З 1
{1}
30 км 6/0
[Ac As]
+7.7 +6.2 90 +7 +7 холодно 1029.0 982.5
Ю 1
{2}
40 км 5/0
[Ac trans]
+7.7 +6.2 90 +7 +7 холодно 1028.9 982.4
ЮВ 1
{1}
50 км 8/1 2000 м
[Cu Sc Ac trans]
+8.3 +6.9 91 +7 +8 холодно 1028.7 982.4
СЗ 1
{1}
50 км 8/1 2000 м
[Cu Sc Ac trans]
+9.9 +7.5 85 +9 +12 прохладно 1028.2 982.1 +7.1
ЮВ 1
{2}
50 км 9/3 2000 м
[Cu Sc Ac As]
+12.3 +8.8 79 +12 +16 по сезону 1027.6 982.0
З 1
{2}
50 км 9/1 1500 м
[Cu Sc Ac As]
+10.9 +7.6 80 +11 +14 по сезону 1028.2 982.2
СВ 1
{2}
50 км 9/4 2000 м
[Cu Sc Ac As]
+15.0 +8.9 67 +16 +20 по сезону 1026.5 981.3
ЮВ 1
{3}
50 км 9/4 2000 м
[Cu Sc Ac As]
+16.5 +9.2 62 +17 +22 по сезону 1025.5 980.6
40 км слаб. ливневой дождь 8/5 1300 м
[Cu Sc Ac As]
+18.5 +12.0 66 1024.5 980.0
З 2
{5}
50 км в посл. час ливневой дождь 8/4 1500 м
[Cu Sc Ac As]
+20.1 +9.1 49 +22 +28 комфорт 1023.2 979.0 0.0
С 3
{6}
40 км 4/3 2000 м
[Cu med, cong Ac cuf Ci ing]
+20.8 +5.6 37 +22 +28 комфорт 1022.3 978.1
З 3
{5}
40 км осадки на расстоянии 8/4 1500 м
[Cb cap Ac cuf Ci ing]
+20.7 +8.7 46 +22 +28 комфорт 1022.7 978.5
ЮЗ 2
{6}
50 км 6/5 2000 м
[Cu med, cong Ac trans Ci ing]
+20.8 +8.1 44 +23 +26 комфорт 1022.1 978.0
ЮЗ 1
{4}
50 км 5/4 2000 м
[Cu med, cong Ac trans]
+20.8 +5.2 36 +23 +25 комфорт 1021.8 977.7
В 3
{5}
50 км 8/3 2000 м
[Cu med, cong Ac As]
+17.7 +9.9 60 +18 +18 прохладно 1022.6 978.0
В 3
{7}
30 км гроза без осадков 8/8 1500 м
[Cb cap Ac cuf]
+16.1 +9.5 65 +16 +16 прохладно 1023.8 978.9 +21.7 0.0
Ю 2
{7}
20 км в посл. час ливневой дождь 8/6 1500 м
[Cu Sc Ac cuf]
+14.8 +9.8 72 +15 +15 прохладно 1026.8 981.6
Ю 4
{5}
20 км слаб. ливневой дождь 8/8 1500 м
[Cu Sc Ac cuf]
+14.6 +11.4 81 +13 +13 очень
холодно
1025.2 980.0
В 4
{7}
20 км слаб. ливневой дождь {гроза} 8/8 1500 м
[Cu Sc Ac cuf]
+13.2 +9.1 76 +12 +12 прохладно 1027.7 982.1
ЮЗ 1
{3}
20 км в посл. час ливневой дождь 8/8 1500 м
[Cu Sc Ac cuf]
+12.3 +10.7 90 +12 +12 прохладно 1028.2 982.5
Ю 2
{4}
20 км 9/8 400 м
[Cu Sc]
+11.4 +10.3 93 +10 +10 холодно 1028.5 982.7
В 1
{3}
20 км {гроза, ливн. осадки} 8/4 400 м
[Cu Sc Ac trans]
+10.7 +9.9 95 +10 +10 по сезону 1028.4 982.5 0.2
Ю 1
{2}
30 км 8/5 90 м
[Cu Sc Ac trans]
+10.0 +9.5 97 +9 +9 по сезону 1028.1 982.1
З 1
{2}
30 км 8/4 400 м
[Cu Sc Ac trans]
+10.1 +9.5 96 +10 +10 по сезону 1028.3 982.2
ЮВ 1
{4}
30 км 6/4 180 м
[Cu Sc Ac trans]
+9.4 +9.1 98 +9 +9 по сезону 1028.2 982.1
ЮВ 2 20 км 8/8 90 м
[Cu Sc Ac trans]
+9.8 +9.5 98 +8 +8 прохладно 1028.5 982.4
ЮВ 2 20 км 6/6 90 м
[Cu Sc Ac trans]
+10.9 +10.0 94 +9 +10 по сезону 1028.7 982.8
ЮВ 2
{3}
30 км 5/5 30 м
[Cu Sc Ac trans]
+11.4 +9.4 88 +10 +12 по сезону 1028.9 983.0 +9.0 0.2 0.2
З 2
{3}
50 км 5/5 600 м
[Cu Sc Ac trans]
+14.7 +10.3 75 +14 +20 тепло 1028.5 983.2
Ю 1 50 км 5/4 400 м
[Cu Sc Ac trans]
+12.1 +9.5 84 +12 +17 по сезону 1028.9 983.1
СВ 2
{3}
50 км 8/4 2000 м
[Sc Ac trans]
+14.6 +9.6 72 +14 +20 по сезону 1028.5 983.1
В 2
{3}
50 км 8/4 2000 м
[Cu Sc Ac trans]
+16.2 +7.4 56 +16 +23 по сезону 1028.0 983.0
ЮВ 1
{3}
50 км 8/4 2000 м
[Cu Sc Ac trans]
+17.2 +4.5 43 +18 +26 тепло 1027.5 982.6
СВ 2
{8}
50 км осадки на расстоянии 8/4 1500 м
[Cu med, cong Ac trans]
+18.4 +8.4 52 +19 +26 по сезону 1026.8 982.1
С 5
{9}
50 км 8/3 2000 м
[Cu Sc Ac As]
+19.3 +4.3 37 +19 +22 по сезону 1025.8 981.3
З 4
{7}
50 км 6/3 2000 м
[Cu Sc Ac trans]
+19.7 +4.2 36 +20 +26 по сезону 1026.0 981.5
СЗ 5
{13}
50 км 6/3 2000 м
[Cu med, cong Ac As Ci]
+17.6 +1.6 34 +17 +19 по сезону 1026.6 981.8
СЗ 4
{10}
50 км 6/1 2000 м
[Cu med, cong Ac As]
+18.9 +3.5 36 +19 +21 по сезону 1026.3 981.7
С 4
{12}
50 км 5/1 2000 м
[Cu Sc Ac trans]
+17.8 +1.4 33 +18 +18 по сезону 1026.6 981.8
С 5
{10}
50 км 4/1 2000 м
[Cu hum Ac trans]
+16.4 +2.1 38 +16 +16 по сезону 1027.2 982.2 +20.3
С 5
{8}
40 км 5/3 2000 м
[Cu Sc Ac trans]
+15.3 +1.8 40 +14 +14 прохладно 1029.6 984.2
СЗ 5
{8}
50 км 5/3 2000 м
[Cu hum Ac trans]
+15.8 +1.9 39 +15 +15 прохладно 1028.4 983.2
СЗ 5
{10}
50 км 4/3 2000 м
[Cu Sc Ac trans]
+14.4 +1.7 42 +13 +13 по сезону 1030.2 984.7
В 2
{6}
50 км 5/3 2000 м
[Cu Sc Ac trans]
+11.3 +4.3 62 +10 +10 прохладно 1031.2 985.2
ЮЗ 1
{3}
50 км 4/4 2000 м
[Sc]
+9.5 +4.7 72 +9 +9 прохладно 1031.2 984.9
Ю 1
{3}
50 км 5/3 2000 м
[Sc Ac trans]
+9.2 +4.6 73 +9 +9 по сезону 1030.8 984.5
З 2
{3}
50 км 5/3 2000 м
[Sc Ac trans]
+7.7 +5.3 85 +6 +6 по сезону 1030.9 984.3
В 1
{2}
50 км 6/5 2000 м
[Sc Ac trans]
+8.4 +5.5 82 +8 +8 по сезону 1030.9 984.4
З 1
{5}
50 км 4/4 2000 м
[Cu Sc Ac trans]
+7.1 +5.1 87 +6 +6 прохладно 1031.0 984.3
ЮВ 1
{2}
50 км 4/4 2000 м
[Cu Sc Ac lent]
+6.9 +4.9 87 +6 +6 прохладно 1031.3 984.5
ЮВ 1
{2}
50 км 1/1 2000 м
[Cu hum]
+10.6 +5.4 70 +10 +12 по сезону 1030.8 984.7
В 1
{3}
50 км 1/1 1500 м
[Cu hum]
+13.1 +6.2 63 +13 +18 тепло 1030.2 984.6 +6.0
ЮВ 2
{4}
50 км 1/1 1500 м
[Cu hum]
+17.4 +4.7 43 +18 +28 тепло 1029.4 984.4
ЮВ 3
{4}
50 км 1/1 1500 м
[Cu hum]
+14.7 +7.0 60 +14 +20 тепло 1029.9 984.5
ЮВ 2
{4}
50 км 1/1 1500 м
[Cu hum]
+18.5 +3.2 36 +19 +33 опасность
простуды
1029.1 984.3
В 1
{4}
50 км 1/1 1500 м
[Cu hum]
+18.0 +2.7 36 +19 +38 опасность
простуды
1028.8 983.9
Ю 3
{5}
50 км 3/3 2000 м
[Cu hum]
+19.6 +2.5 32 +20 +31 тепло 1028.4 983.7
В 1
{4}
н/о н/о +20.6 +6.2 39 +23 +35 комфорт 1027.7 983.3
ЮВ 3
{6}
50 км 4/4 2000 м
[Cu hum]
+20.5 +5.7 38 +22 +28 комфорт 1026.7 982.3
ЮВ 4
{7}
50 км 4/4 2000 м
[Cu hum]
+19.8 +3.9 35 +20 +26 тепло 1027.4 982.9
ЮВ 3
{5}
50 км 4/4 2000 м
[Cu hum]
+20.7 +4.3 34 +22 +26 комфорт 1026.3 981.9
ЮВ 3
{5}
50 км 3/3 2000 м
[Cu hum]
+20.7 +4.3 34 +22 +24 комфорт 1025.7 981.4
ЮВ 4
{5}
50 км 1/1 2000 м
[Cu hum]
+19.5 +6.3 42 +20 +21 тепло 1026.0 981.5
ЮВ 3
{5}
50 км 1/1 2000 м
[Cu hum]
+17.9 +5.5 44 +18 +18 тепло 1026.5 981.7 +21.4
З 1
{2}
50 км 1/0
[Ac lent]
+12.0 +7.7 75 +12 +12 прохладно 1028.7 982.9
ЮВ 1
{2}
50 км 1/1
[Cu hum Ac lent]
+14.0 +7.5 65 +14 +14 по сезону 1027.6 982.2
СЗ 1
{1}
50 км 1/0
[Ac lent]
+10.7 +6.8 77 +10 +10 по сезону 1029.1 983.1
З 1
{3}
50 км 1/1
[Cu hum Ac lent]
+9.3 +6.6 83 +9 +9 прохладно 1029.4 983.2
штиль 0
{1}
50 км 1/0
[Ac lent]
+7.1 +5.7 91 +6 +6 холодно 1029.6 983.0
СЗ 1
{2}
50 км ясно +6.7 +5.7 93 +6 +6 по сезону 1029.4 982.8
СЗ 1
{1}
50 км 1/1 2000 м
[Sc Ac trans Ci fib]
+5.0 +4.4 96 +4 +4 прохладно 1028.9 981.9
штиль 0
{1}
50 км ясно +6.1 +5.2 94 +5 +5 по сезону 1029.1 982.3
СЗ 1
{2}
50 км 1/1 2000 м
[Sc Ac trans Ci fib]
+3.8 +3.2 96 +2 +2 холодно 1029.0 981.8
штиль 0
{2}
50 км 3/1 2000 м
[Sc Ac trans Ci fib]
+5.0 +4.6 97 +4 +4 прохладно 1028.6 981.7
штиль 0
{1}
50 км 8/4 1500 м
[Cu Sc Ac lent Ci sp]
+6.7 +6.1 96 +6 +7 по сезону 1028.4 981.7
штиль 0
{2}
50 км 8/1 1500 м
[Cu Sc Ac lent Ci sp]
+9.6 +6.1 79 +9 +12 по сезону 1027.3 981.2 +3.7
В 1
{2}
50 км 9/4 1500 м
[Cu Sc Ac As Ci sp]
+12.4 +6.9 69 +13 +17 тепло 1025.9 980.3
штиль 0
{2}
50 км 9/5 1500 м
[Cu Sc Ac As Ci sp]
+10.6 +6.9 78 +10 +13 по сезону 1026.7 980.8
В 1
{2}
50 км 9/4 1500 м
[Cu Sc Ac As Ci sp]
+13.6 +7.6 67 +14 +20 тепло 1025.2 979.9
штиль 0
{2}
50 км 9/4 1500 м
[Cu Sc Ac As Ci sp]
+15.4 +7.9 61 +15 +24 тепло 1024.4 979.3
ЮЗ 1
{3}
30 км 9/4 1500 м
[Cu Sc Ac As Ci sp]
+18.3 +11.1 63 +20 +27 тепло 1022.8 978.3
В 2
{4}
30 км 9/6 1500 м
[Cu Sc Ac As Ci sp]
+18.4 +10.0 58 +19 +24 тепло 1022.2 977.7
В 2
{4}
30 км 9/8 1500 м
[Cu Sc Ac lent Ci fib]
+19.5 +6.6 43 +21 +23 комфорт 1020.9 976.6
В 3
{5}
30 км 9/6 1500 м
[Cu Sc Ac As Ci fib]
+19.1 +9.9 55 +20 +23 тепло 1021.4 977.1
С 1
{3}
30 км слаб. ливневой дождь 9/9 1500 м
[Cu Sc Ac lent Ci fib]
+17.9 +9.8 59 +19 +20 тепло 1021.0 976.5
В 4 40 км 6/6 1500 м
[Cb cap Ac cuf Ci ing]
+15.3 +8.3 63 +14 +15 по сезону 1021.6 976.6
Ю 1
{5}
50 км {ливн. осадки} 5/4 1500 м
[Cu Sc Ac cuf Ci ing]
+13.9 +8.9 72 +14 +14 по сезону 1022.4 977.3 +20.0 0.0
Местоположение метеостанции Любляна аэропорт (Словения): широта 46.22 долгота 14.48 высота над уровнем моря 385 м.
В архиве по умолчанию представлена погода в Любляна аэропорту за последнюю неделю. Архивные данные за месяц целиком и за предыдущие месяцы, начиная с января 2011 года, Вы можете получить, выбрав интересующий диапазон дат из раскрывающегося списка и нажав кнопку "Найти!".
*Определитесь, кто Вы:
Внимание! Время в таблицах - всемирное. Для получения местного времени необходимо прибавить поправку, которая равна 1 ч.
Смотрите также архив погоды в соседних городах и на ближайших метеорологических станциях:
Партнеры нашего сайта:      
Пояснения к столбцам:
  • Ветер - указаны скорость ветра в м/с - средняя за 10 мин, порывы в срок и между сроками (в фигурных скобках) и направление, откуда дует ветер: С - северный,
  • СВ - северо-восточный, В - восточный, ЮВ - юго-восточный, Ю - южный, ЮЗ - юго-западный, З - западный, СЗ - северо-западный.
  • Видимость - горизонтальная дальность видимости в метрах или километрах. При видимости от 1 до 10 км при отсутствии осадков обычно наблюдается дымка, при ухудшении видимости до 1 км и менее - туман. В сухую погоду видимость может ухудшаться дымом, пылью или мглою.
  • Явления - указаны атмосферные явления, наблюдавшиеся в срок или в последний час перед сроком; фигурными скобками обозначены явления, наблюдавшиеся между сроками (за 1-3 часа до срока); квадратными скобками обозначены град или гололедные отложения с указанием их диаметра в мм.
  • Облачность - указаны через наклонную черту общая и нижняя облачность в баллах и высота нижней границы облаков в метрах; квадратными скобками обозначены формы облаков: Ci - перистые, Cs - перисто-слоистые, Cc - перисто-кучевые, Ac - высококучевые, As - высокослоистые, Sc - слоисто-кучевые, Ns - слоисто-дождевые, Cu - кучевые, Cb - кучево-дождевые. Подробнее классификацию облаков см. в Атласе облаков (PDF).
  • T - Температура воздуха - температура, измеренная на высоте 2 м над землей.
  • Td - Температура точки росы - температура, при понижении до которой содержащийся в воздухе водяной пар достигнет насыщения.
  • f - Относительная влажность воздуха - влажноcть воздуха, измеренная на высоте 2 м над землей.
  • Te - Эффективная температура - температура, которую ощущает одетый по сезону человек в тени. Характеристика душности погоды. При расчете учитывается влияние влажности воздуха и скорости ветра на теплоощущения человека.
  • Tes - Эффективная температура на солнце - температура, которую ощущает человек, с поправкой на солнечный нагрев. Характеристика знойности погоды. Зависит от высоты солнца над горизонтом, облачности и скорости ветра. Ночью, в пасмурную погоду, а также при ветре 12 м/с и более поправка равна нулю.
  • P - Атмосферное давление - приведенное к уровню моря атмосферное давление.
  • Po - Атмосферное давление - измеренное на уровне метеостанции атмосферное давление.
  • Tmin - Минимальная температура - минимум температуры воздуха на высоте 2 м над землей.
  • Tmax - Максимальная температура - максимум температуры воздуха на высоте 2 м над землей.
  • R - Количество осадков - Количество выпавших осадков за период времени, мм. При наведении курсора мыши на число - период времени, за который выпало указанное количество осадков.
  • R24 - Количество осадков - Количество выпавших осадков за 24 часа, мм.
  • S - Снежный покров - Высота снежного покрова, см. При наведении курсора мыши на число - состояние снежного покрова и степень покрытия местности в баллах.